Date,TemperatureHighF,TemperatureAvgF,TemperatureLowF,DewpointHighF,DewpointAvgF,DewpointLowF,HumidityHigh,HumidityAvg,HumidityLow,PressureMaxIn,PressureMinIn,WindSpeedMaxMPH,WindSpeedAvgMPH,GustSpeedMaxMPH,PrecipitationSumIn
2013-6-1,73,68,63,67,63,61,94,85,73,29.87,29.68,15,1,18,1.14
2013-6-2,69,63,50,64,57,45,89,80,70,29.97,29.68,16,2,20,0.00
2013-6-3,68,58,49,47,44,38,85,61,39,30.08,29.97,5,0,7,0.00
2013-6-4,76,63,47,51,48,44,89,60,37,30.16,30.07,6,0,9,0.00
2013-6-5,80,67,55,56,49,39,79,55,36,30.11,29.91,7,1,9,0.00
2013-6-6,78,65,57,58,51,45,75,61,45,29.93,29.78,8,0,9,0.00
2013-6-7,72,63,55,57,53,50,87,71,52,29.89,29.83,5,0,6,0.00
2013-6-8,77,65,50,57,53,47,92,68,43,30.00,29.88,6,0,7,0.00
2013-6-9,84,72,61,67,60,54,89,68,43,30.03,29.85,6,0,7,0.05
2013-6-10,79,69,65,66,64,62,93,85,58,29.85,29.70,13,1,16,0.39
2013-6-11,84,72,63,69,64,60,92,77,56,29.90,29.78,12,1,13,0.00
2013-6-12,88,76,67,76,69,63,91,80,63,29.87,29.60,10,0,14,0.46
2013-6-13,79,69,62,64,59,52,92,72,41,29.92,29.47,12,0,15,0.18
2013-6-14,80,68,58,60,56,54,90,68,43,30.05,29.91,5,0,8,0.00
2013-6-15,78,67,58,64,60,55,91,79,57,30.08,29.90,14,0,15,0.02
2013-6-16,81,73,64,70,66,61,90,79,64,29.90,29.84,14,2,17,0.05
2013-6-17,86,76,67,70,64,58,92,70,40,29.91,29.83,12,1,12,0.01
2013-6-18,80,71,64,63,60,50,87,69,51,30.02,29.82,8,0,11,0.00
2013-6-19,80,67,52,56,50,44,77,57,36,30.13,30.01,6,0,7,0.00
2013-6-20,84,71,54,66,58,50,87,65,47,30.17,30.09,8,0,11,0.00
2013-6-21,87,78,64,64,62,60,88,61,40,30.16,29.99,10,0,12,0.00
2013-6-22,89,78,69,75,68,62,84,71,57,30.07,29.94,14,1,18,0.00
2013-6-23,89,77,67,72,67,64,91,73,48,30.06,29.94,13,1,20,0.00
2013-6-24,88,77,68,71,68,64,91,75,52,30.05,29.88,13,1,15,0.02
2013-6-25,90,77,68,76,69,64,91,77,54,29.96,29.78,20,2,22,1.15
2013-6-26,84,71,67,75,68,64,93,89,66,29.87,29.69,13,0,20,0.79
2013-6-27,85,75,68,73,69,66,94,83,63,29.75,29.62,11,0,17,0.00
2013-6-28,80,73,67,68,64,60,91,76,53,29.64,29.51,11,1,15,0.01
2013-6-29,75,68,61,68,63,59,92,86,72,29.68,29.52,4,0,6,0.21
2013-6-30,80,69,61,64,61,59,92,79,56,29.89,29.68,7,0,12,0.26